カタログに戻る

STARLINK-37795

運用中通信SSO
NORAD 69311·PAYLOAD·🇺🇸 United States

打ち上げ May 30, 2026 から Vandenberg Space Force Base

Loading…

次のパス (今後24時間)

TLE

最新Source: CelesTrak SupGP

元期: Sep 14, 2026, 22:55 UTC

1 69311C 26119R   26257.95534722  .00039939  00000+0  12399-2 0  2573
2 69311  97.2829 282.7983 0001143  93.3986 334.5246 15.33416436    19

AllMySatでSTARLINK-37795をリアルタイム追跡

Download on the App Store